�������l�o���
Date,Time,MP-1(��Sv/h),MP-2(��Sv/h),MP-3(��Sv/h),MP-4(��Sv/h),MP-5(��Sv/h),MP-6(��Sv/h),MP-7(��Sv/h),MP-8(��Sv/h),����,����(m/s),���J
2020/11/27,00:00,0.669,0.963,0.609,1.198,0.850,0.383,0.676,0.635,�k,6.0,��
2020/11/27,00:10,0.668,0.962,0.608,1.196,0.852,0.381,0.675,0.633,�k,5.2,��
2020/11/27,00:20,0.668,0.964,0.609,1.198,0.850,0.382,0.674,0.636,�k�k��,4.8,��
2020/11/27,00:30,0.669,0.964,0.610,1.195,0.851,0.381,0.675,0.635,�k,5.2,��
2020/11/27,00:40,0.668,0.962,0.609,1.198,0.852,0.382,0.674,0.635,�k,6.3,��
2020/11/27,00:50,0.667,0.966,0.610,1.197,0.853,0.382,0.675,0.636,�k,6.1,��
2020/11/27,01:00,0.669,0.963,0.609,1.198,0.852,0.382,0.675,0.635,�k�k��,5.0,��
2020/11/27,01:10,0.670,0.961,0.609,1.198,0.851,0.382,0.675,0.635,�k,5.3,��
2020/11/27,01:20,0.668,0.964,0.609,1.196,0.851,0.381,0.674,0.635,�k,5.5,��
2020/11/27,01:30,0.668,0.962,0.609,1.197,0.852,0.383,0.674,0.635,�k�k��,4.9,��
2020/11/27,01:40,0.667,0.963,0.608,1.201,0.852,0.381,0.674,0.634,�k�k��,4.7,��
2020/11/27,01:50,0.668,0.964,0.608,1.197,0.852,0.381,0.675,0.635,�k�k��,4.5,��
2020/11/27,02:00,0.668,0.961,0.610,1.195,0.851,0.381,0.675,0.634,�k,3.4,��
2020/11/27,02:10,0.669,0.961,0.611,1.196,0.853,0.381,0.676,0.635,�k,4.7,��
2020/11/27,02:20,0.667,0.962,0.610,1.196,0.851,0.381,0.674,0.635,�k,5.4,��
2020/11/27,02:30,0.669,0.962,0.610,1.198,0.852,0.383,0.675,0.635,�k,5.7,��
2020/11/27,02:40,0.670,0.961,0.608,1.196,0.852,0.382,0.674,0.634,�k,6.1,��
2020/11/27,02:50,0.669,0.963,0.609,1.200,0.853,0.381,0.676,0.635,�k�k��,6.2,��
2020/11/27,03:00,0.670,0.960,0.610,1.201,0.850,0.383,0.675,0.637,�k�k��,6.1,��
2020/11/27,03:10,0.668,0.963,0.610,1.199,0.853,0.382,0.674,0.634,�k,6.1,��
2020/11/27,03:20,0.667,0.960,0.609,1.198,0.852,0.383,0.675,0.636,�k,5.6,��
2020/11/27,03:30,0.669,0.962,0.610,1.198,0.852,0.381,0.676,0.636,�k,5.6,��
2020/11/27,03:40,0.667,0.964,0.609,1.200,0.853,0.381,0.675,0.635,�k,5.6,��
2020/11/27,03:50,0.670,0.962,0.609,1.198,0.853,0.383,0.675,0.634,�k,5.4,��
2020/11/27,04:00,0.669,0.961,0.609,1.197,0.853,0.382,0.674,0.635,�k�k��,5.4,��
2020/11/27,04:10,0.669,0.964,0.607,1.198,0.852,0.381,0.675,0.634,�k,4.3,��
2020/11/27,04:20,0.669,0.961,0.610,1.198,0.851,0.383,0.676,0.633,�k�k��,4.5,��
2020/11/27,04:30,0.669,0.962,0.610,1.196,0.853,0.381,0.676,0.634,�k�k��,4.1,��
2020/11/27,04:40,0.670,0.961,0.609,1.196,0.850,0.381,0.674,0.634,�k�k��,4.5,��
2020/11/27,04:50,0.668,0.961,0.608,1.199,0.851,0.381,0.673,0.634,�k�k��,4.2,��
2020/11/27,05:00,0.669,0.963,0.608,1.196,0.852,0.381,0.675,0.634,�k,3.8,��
2020/11/27,05:10,0.667,0.963,0.609,1.199,0.852,0.381,0.677,0.634,�k,3.7,��
2020/11/27,05:20,0.667,0.964,0.608,1.197,0.853,0.381,0.673,0.635,�k�k��,2.9,��
2020/11/27,05:30,0.669,0.963,0.610,1.198,0.852,0.381,0.675,0.635,�k,3.3,��
2020/11/27,05:40,0.669,0.961,0.609,1.197,0.852,0.381,0.674,0.635,�k,3.6,��
2020/11/27,05:50,0.669,0.964,0.608,1.197,0.853,0.381,0.675,0.636,�k�k��,4.3,��
2020/11/27,06:00,0.668,0.962,0.609,1.196,0.852,0.382,0.674,0.635,�k,4.1,��
2020/11/27,06:10,0.668,0.961,0.608,1.196,0.853,0.381,0.675,0.635,�k,3.8,��
2020/11/27,06:20,0.668,0.962,0.610,1.197,0.851,0.382,0.675,0.635,�k�k��,4.1,��
2020/11/27,06:30,0.668,0.963,0.609,1.199,0.852,0.381,0.674,0.634,�k�k��,4.2,��
2020/11/27,06:40,0.671,0.964,0.609,1.199,0.853,0.382,0.675,0.635,�k�k��,4.1,��
2020/11/27,06:50,0.667,0.964,0.608,1.197,0.850,0.381,0.674,0.636,�k�k��,4.3,��
2020/11/27,07:00,0.669,0.962,0.608,1.200,0.851,0.382,0.676,0.635,�k�k��,4.1,��
2020/11/27,07:10,0.671,0.964,0.608,1.198,0.853,0.380,0.675,0.636,�k,4.2,��
2020/11/27,07:20,0.670,0.963,0.608,1.200,0.853,0.382,0.674,0.634,�k,3.7,��
2020/11/27,07:30,0.670,0.965,0.608,1.198,0.850,0.382,0.673,0.636,�k,3.7,��
2020/11/27,07:40,0.668,0.961,0.610,1.200,0.850,0.381,0.675,0.634,�k,4.1,��
2020/11/27,07:50,0.669,0.962,0.608,1.200,0.853,0.382,0.676,0.635,�k,4.0,��
2020/11/27,08:00,0.670,0.962,0.610,1.198,0.853,0.380,0.674,0.635,�k�k��,4.2,��
2020/11/27,08:10,0.668,0.962,0.608,1.197,0.853,0.382,0.673,0.635,�k�k��,5.4,��
2020/11/27,08:20,0.668,0.963,0.609,1.197,0.850,0.382,0.673,0.635,�k�k��,4.6,��
2020/11/27,08:30,0.668,0.960,0.608,1.197,0.849,0.381,0.672,0.634,�k�k��,4.6,��
2020/11/27,08:40,0.668,0.960,0.609,1.200,0.852,0.381,0.676,0.634,�k,3.5,��
2020/11/27,08:50,0.669,0.960,0.609,1.199,0.843,0.380,0.674,0.635,�k�k��,3.0,��
2020/11/27,09:00,0.668,0.960,0.608,1.198,0.839,0.381,0.673,0.636,�k,4.4,��
2020/11/27,09:10,0.670,0.959,0.608,1.200,0.823,0.381,0.674,0.635,�k�k��,3.8,��
2020/11/27,09:20,0.670,0.962,0.609,1.199,0.829,0.381,0.673,0.636,�k,3.3,��
2020/11/27,09:30,0.669,0.956,0.609,1.198,0.844,0.382,0.673,0.635,�k�k��,2.9,��
2020/11/27,09:40,0.670,0.959,0.609,1.196,0.842,0.382,0.675,0.635,�k�k��,2.0,��
2020/11/27,09:50,0.670,0.962,0.607,1.200,0.843,0.381,0.674,0.636,�k�k��,2.8,��
2020/11/27,10:00,0.670,0.956,0.610,1.198,0.844,0.382,0.675,0.636,�k��,3.8,��
2020/11/27,10:10,0.669,0.961,0.610,1.201,0.854,0.379,0.674,0.634,�k��,3.9,��
2020/11/27,10:20,0.672,0.958,0.610,1.200,0.853,0.380,0.675,0.635,�k��,3.9,��
2020/11/27,10:30,0.670,0.959,0.609,1.199,0.852,0.378,0.674,0.636,�k�k��,3.9,��
2020/11/27,10:40,0.669,0.960,0.610,1.201,0.854,0.379,0.675,-,�k�k��,4.4,��
2020/11/27,10:50,0.671,0.959,0.610,1.199,0.853,0.381,0.674,-,�k�k��,4.4,��
2020/11/27,11:00,0.669,0.960,0.609,1.201,0.852,0.379,0.672,-,�k�k��,3.9,��
2020/11/27,11:10,0.669,0.962,0.609,1.200,0.854,0.382,0.674,-,�k�k��,4.0,��
2020/11/27,11:20,0.672,0.961,0.609,1.200,0.852,0.382,0.674,-,�k�k��,3.8,��
2020/11/27,11:30,0.670,0.960,0.611,1.201,0.853,0.381,0.675,-,�k�k��,3.1,��
2020/11/27,11:40,0.668,0.963,0.608,1.200,0.853,0.381,0.675,-,�k�k��,4.6,��
2020/11/27,11:50,0.668,0.962,0.608,1.201,0.852,0.381,0.674,-,�k�k��,3.1,��
2020/11/27,12:00,0.670,0.963,0.609,1.196,0.853,0.382,0.674,-,�k�k��,3.1,��
2020/11/27,12:10,0.670,0.964,0.610,1.199,0.852,0.381,0.674,-,�k�k��,4.0,��
2020/11/27,12:20,0.670,0.964,0.609,1.201,0.855,0.382,0.674,-,�k�k��,2.6,��
2020/11/27,12:30,0.670,0.963,0.610,1.200,0.855,0.380,0.675,-,�k�k��,2.6,��
2020/11/27,12:40,0.670,0.964,0.610,1.198,0.855,0.381,0.674,-,�k,2.0,��
2020/11/27,12:50,0.671,0.963,0.610,1.198,0.854,0.382,0.675,-,�k�k��,2.3,��
2020/11/27,13:00,0.671,0.962,0.611,1.200,0.856,0.380,0.674,-,�k,2.3,��
2020/11/27,13:10,0.669,0.962,0.608,1.200,0.854,0.382,0.674,-,�k�k��,2.6,��
2020/11/27,13:20,0.670,0.963,0.610,1.201,0.856,0.382,0.675,-,�k,2.2,��
2020/11/27,13:30,0.672,0.960,0.609,1.202,0.853,0.382,0.675,-,�k,1.5,��
2020/11/27,13:40,0.671,0.963,0.611,1.199,0.856,0.382,0.676,-,�k�k��,1.7,��
2020/11/27,13:50,0.670,0.961,0.611,1.199,0.855,0.381,0.675,-,�k��,1.5,��
2020/11/27,14:00,0.670,0.960,0.610,1.201,0.855,0.381,0.677,-,�k�k��,1.4,��
2020/11/27,14:10,0.672,0.961,0.611,1.200,0.855,0.381,0.675,-,�k��,1.5,��
2020/11/27,14:20,0.670,0.963,0.611,1.200,0.853,0.381,0.675,-,���k��,0.9,��
2020/11/27,14:30,0.670,0.962,0.612,1.198,0.856,0.382,0.674,-,�쓌,1.1,��
2020/11/27,14:40,0.668,0.961,0.611,1.200,0.856,0.384,0.676,-,���쓌,1.7,��
2020/11/27,14:50,0.671,0.961,0.611,1.198,0.857,0.382,0.675,-,��,1.5,��
2020/11/27,15:00,0.672,0.960,0.610,1.200,0.855,0.381,0.676,-,��쓌,2.5,��
2020/11/27,15:10,0.672,0.964,0.612,1.201,0.855,0.382,0.678,-,�쓌,2.2,��
2020/11/27,15:20,0.671,0.964,0.611,1.199,0.855,0.381,0.675,0.635,���쓌,2.8,��
2020/11/27,15:30,0.672,0.964,0.612,1.200,0.855,0.381,0.674,0.636,�쓌,1.5,��
2020/11/27,15:40,0.670,0.966,0.611,1.200,0.855,0.382,0.676,0.635,��쓌,1.7,��
2020/11/27,15:50,0.672,0.962,0.612,1.199,0.857,0.383,0.676,0.637,�쓌,2.0,��
2020/11/27,16:00,0.670,0.965,0.610,1.200,0.855,0.382,0.676,0.635,���쓌,1.7,��
2020/11/27,16:10,0.671,0.964,0.611,1.199,0.855,0.383,0.677,0.635,��쓌,1.9,��
2020/11/27,16:20,0.670,0.967,0.611,1.203,0.854,0.384,0.677,0.635,��쓌,1.7,��
2020/11/27,16:30,0.672,0.966,0.611,1.200,0.855,0.383,0.678,0.637,��쓌,1.5,��
2020/11/27,16:40,0.671,0.963,0.611,1.197,0.856,0.383,0.677,0.636,�쓌,2.2,��
2020/11/27,16:50,0.671,0.965,0.610,1.200,0.853,0.384,0.676,0.635,��쓌,1.9,��
2020/11/27,17:00,0.670,0.964,0.610,1.202,0.854,0.381,0.676,0.635,��쓌,1.2,��
2020/11/27,17:10,0.670,0.966,0.610,1.204,0.855,0.382,0.675,0.635,��,1.7,��
2020/11/27,17:20,0.670,0.963,0.609,1.203,0.854,0.382,0.676,0.635,��쓌,2.0,��
2020/11/27,17:30,0.671,0.967,0.609,1.202,0.856,0.381,0.676,0.635,��,1.9,��
2020/11/27,17:40,0.671,0.965,0.610,1.203,0.854,0.383,0.676,0.635,��,2.2,��
2020/11/27,17:50,0.672,0.965,0.611,1.202,0.854,0.383,0.676,0.636,��,3.1,��
2020/11/27,18:00,0.672,0.966,0.612,1.203,0.854,0.383,0.677,0.635,��,2.6,��
2020/11/27,18:10,0.671,0.965,0.610,1.204,0.854,0.384,0.677,0.635,��,2.6,��
2020/11/27,18:20,0.670,0.967,0.612,1.202,0.854,0.383,0.677,0.636,��,3.2,��
2020/11/27,18:30,0.671,0.966,0.611,1.202,0.856,0.382,0.678,0.636,��,2.8,��
2020/11/27,18:40,0.672,0.965,0.612,1.201,0.854,0.384,0.675,0.637,��쓌,3.0,��
2020/11/27,18:50,0.671,0.965,0.610,1.200,0.857,0.384,0.677,0.635,��,2.6,��
2020/11/27,19:00,0.671,0.967,0.610,1.203,0.854,0.382,0.675,0.636,��,2.5,��
2020/11/27,19:10,0.672,0.966,0.611,1.204,0.856,0.383,0.677,0.638,��,3.2,��
2020/11/27,19:20,0.671,0.967,0.612,1.201,0.856,0.383,0.677,0.636,��,3.0,��
2020/11/27,19:30,0.672,0.966,0.609,1.202,0.854,0.384,0.676,0.637,��쐼,2.3,��
2020/11/27,19:40,0.671,0.967,0.610,1.202,0.855,0.382,0.676,0.636,��쐼,2.3,��
2020/11/27,19:50,0.671,0.968,0.610,1.202,0.857,0.383,0.675,0.636,��,1.7,��
2020/11/27,20:00,0.671,0.967,0.610,1.202,0.857,0.383,0.676,0.637,��,2.5,��
2020/11/27,20:10,0.671,0.967,0.611,1.202,0.855,0.383,0.677,0.634,��,2.5,��
2020/11/27,20:20,0.671,0.967,0.611,1.201,0.856,0.383,0.676,0.637,��쐼,3.0,��
2020/11/27,20:30,0.673,0.966,0.612,1.201,0.856,0.383,0.675,0.636,��쐼,3.7,��
2020/11/27,20:40,0.672,0.968,0.611,1.204,0.856,0.382,0.675,0.637,��쐼,4.1,��
2020/11/27,20:50,0.672,0.967,0.611,1.201,0.856,0.383,0.675,0.637,��쐼,4.4,��
2020/11/27,21:00,0.672,0.966,0.610,1.202,0.857,0.382,0.678,0.636,��쐼,4.0,��
2020/11/27,21:10,0.671,0.967,0.612,1.201,0.858,0.383,0.676,0.636,��쐼,4.7,��
2020/11/27,21:20,0.675,0.967,0.613,1.203,0.856,0.381,0.676,0.637,��쐼,4.9,��
2020/11/27,21:30,0.670,0.967,0.611,1.202,0.855,0.384,0.676,0.635,��쐼,5.3,��
2020/11/27,21:40,0.672,0.967,0.612,1.202,0.854,0.382,0.676,0.636,��쐼,5.0,��
2020/11/27,21:50,0.672,0.966,0.611,1.201,0.858,0.383,0.677,0.637,��쐼,4.9,��
2020/11/27,22:00,0.674,0.966,0.612,1.203,0.856,0.384,0.678,0.636,��,5.2,��
2020/11/27,22:10,0.675,0.966,0.610,1.205,0.856,0.383,0.676,0.636,��쐼,4.3,��
2020/11/27,22:20,0.673,0.970,0.612,1.203,0.855,0.382,0.677,0.636,��,4.6,��
2020/11/27,22:30,0.672,0.965,0.612,1.203,0.857,0.383,0.676,0.637,��쐼,3.9,��
2020/11/27,22:40,0.672,0.968,0.612,1.202,0.855,0.383,0.676,0.636,��,4.1,��
2020/11/27,22:50,0.672,0.968,0.612,1.203,0.856,0.383,0.676,0.636,��,4.1,��
2020/11/27,23:00,0.672,0.964,0.611,1.202,0.855,0.383,0.676,0.637,��,4.4,��
2020/11/27,23:10,0.673,0.966,0.613,1.202,0.857,0.384,0.677,0.635,��,4.6,��
2020/11/27,23:20,0.674,0.969,0.613,1.201,0.856,0.382,0.675,0.637,��쓌,4.3,��
2020/11/27,23:30,0.671,0.967,0.612,1.202,0.857,0.383,0.676,0.637,��,4.2,��
2020/11/27,23:40,0.672,0.967,0.615,1.201,0.856,0.385,0.675,0.637,��쐼,3.6,��
2020/11/27,23:50,0.672,0.969,0.612,1.204,0.856,0.384,0.677,0.636,��쐼,3.9,��
